58P/Jackson-Neujmin (2004)

Japanese version
Home page
Total 6,336 html files since Dec. 4, 1995
Updated on September 29, 2004

---------------------------------------------------------------------

* Profile

* Orbital Elements

Epoch 2003 Dec. 27.0 TT = JDT 2453000.5  
T 2004 Jan.  9.99360 TT                                 Muraoka 
q   1.3886640            (2000.0)            P               Q
n   0.11915949     Peri.  200.43879     +0.99664907     -0.02693160
a   4.0899403      Node   160.61516     +0.04090286     +0.98179949
e   0.6604684      Incl.   13.45603     -0.07083496     +0.18800119
P   8.27
From 320 observations 1970-1996, mean residual 0".75.  Nongravitational
   parameters A1 = +0.30 +/- 0.03, A2 = -0.0153 +/- 0.0002.

* Finding Charts

* Magnitudes Graph

        m1 = 7.5 + 5 log d + 30 log r(t - 80)

---------------------------------------------------------------------

The orbital elements are calculated by Kenji Muraoka.
The charts are made with StellaNavigator Ver.2.0 for Windows (AstroArts / ASCII).
The magnitudes graphs are made with Comet for Windows.

---------------------------------------------------------------------

Copyright(C) 1995-2008 Seiichi Yoshida (comet@aerith.net). All rights reserved.